Weather History for Stevens Point, WI

Change the Weather History Date:

Saturday, November 20, 2010

  Actual Average Record
Temperature  
Mean Temperature 24 °F -  
Max Temperature 30 °F 40 °F 65 °F (1975)
Min Temperature 19 °F 25 °F 7 °F (1969)
Degree Days  
Heating Degree Days 40    
Moisture  
Dew Point 13 °F    
Average Humidity 60    
Maximum Humidity 69    
Minimum Humidity 50    
Precipitation  
Precipitation 0.00 in - - ()
Sea Level Pressure  
Sea Level Pressure 30.26 in    
Wind  
Wind Speed 7 mph (NNE)    
Max Wind Speed 14 mph    
Max Gust Speed 18 mph    
Visibility 10 miles    
Events      
Averages and records for this station are not official NWS values.
T = Trace of Precipitation, MM = Missing Value Source: NWS Daily Summary

Daily Weather History Graph

Daily Weather History Graph

Search for Another Location

Airport:

Trip Planner

Search our weather history database for the weather conditions in past years. The results will help you decide how hot, cold, wet, or windy it might be!

Date:

Astronomy

Nov. 20, 2010 Rise Set
Actual Time 7:01 AM CST 4:26 PM CST
Civil Twilight 6:29 AM CST 4:57 PM CST
Nautical Twilight 5:53 AM CST 5:33 PM CST
Astronomical Twilight 5:18 AM CST 6:08 PM CST
Moon 3:31 PM CST (11/20) 6:01 AM CST (11/20)
Length of Visible Light 10h 28m
Length of Day
9h 24m
Waxing Gibbous, 99% of the Moon is Illuminated
Nov 20
Waxing Gibbous
Nov 21
Full
Nov 28
Last Quarter
Dec 5
New
Dec 13
First Quarter

Hourly Weather History & Observations

Time (CST) Temp. Windchill Dew Point Humidity Pressure Visibility Wind Dir Wind Speed Gust Speed Precip Events Conditions
12:15 AM 28.4 °F 20.4 °F 17.6 °F 64% 30.11 in 10.0 mi WNW 8.1 mph - N/A   Clear
12:35 AM 28.4 °F 22.2 °F 17.6 °F 64% 30.13 in 10.0 mi West 5.8 mph - N/A   Clear
12:55 AM 28.4 °F 21.2 °F 17.6 °F 64% 30.13 in 10.0 mi WNW 6.9 mph - N/A   Clear
1:15 AM 26.6 °F 17.5 °F 14.0 °F 59% 30.14 in 10.0 mi WNW 9.2 mph - N/A   Clear
1:35 AM 26.6 °F 16.8 °F 12.2 °F 55% 30.15 in 10.0 mi WNW 10.4 mph 16.1 mph N/A   Clear
1:55 AM 26.6 °F 17.5 °F 12.2 °F 55% 30.15 in 10.0 mi WNW 9.2 mph - N/A   Clear
2:15 AM 26.6 °F 18.2 °F 12.2 °F 55% 30.15 in 10.0 mi WNW 8.1 mph - N/A   Clear
2:35 AM 26.6 °F 18.2 °F 12.2 °F 55% 30.16 in 10.0 mi WNW 8.1 mph - N/A   Clear
2:55 AM 24.8 °F 14.6 °F 10.4 °F 54% 30.17 in 10.0 mi WNW 10.4 mph - N/A   Clear
3:15 AM 24.8 °F 14.6 °F 10.4 °F 54% 30.17 in 10.0 mi NNW 10.4 mph - N/A   Clear
3:35 AM 24.8 °F 12.9 °F 8.6 °F 50% 30.18 in 10.0 mi NW 13.8 mph 18.4 mph N/A   Clear
3:55 AM 23.0 °F 14.7 °F 8.6 °F 54% 30.19 in 10.0 mi NNW 6.9 mph - N/A   Clear
4:15 AM 23.0 °F 14.7 °F 8.6 °F 54% 30.20 in 10.0 mi NW 6.9 mph - N/A   Clear
4:35 AM 21.2 °F 14.9 °F 8.6 °F 58% 30.21 in 10.0 mi NNW 4.6 mph - N/A   Clear
4:55 AM 21.2 °F 12.6 °F 8.6 °F 58% 30.22 in 10.0 mi NNW 6.9 mph - N/A   Clear
5:15 AM 21.2 °F 13.6 °F 8.6 °F 58% 30.23 in 10.0 mi NW 5.8 mph - N/A   Clear
5:35 AM 21.2 °F 13.6 °F 8.6 °F 58% 30.24 in 10.0 mi NNW 5.8 mph - N/A   Clear
5:55 AM 21.2 °F 12.6 °F 8.6 °F 58% 30.24 in 10.0 mi North 6.9 mph - N/A   Clear
6:15 AM 19.4 °F 12.8 °F 8.6 °F 63% 30.24 in 10.0 mi North 4.6 mph - N/A   Clear
6:35 AM 19.4 °F 14.3 °F 8.6 °F 63% 30.25 in 10.0 mi North 3.5 mph - N/A   Clear
6:55 AM 19.4 °F 14.3 °F 8.6 °F 63% 30.27 in 10.0 mi North 3.5 mph - N/A   Clear
7:15 AM 19.4 °F 11.5 °F 8.6 °F 63% 30.28 in 10.0 mi North 5.8 mph - N/A   Clear
7:35 AM 19.4 °F 11.5 °F 8.6 °F 63% 30.29 in 10.0 mi North 5.8 mph - N/A   Clear
7:55 AM 19.4 °F 14.3 °F 10.4 °F 68% 30.30 in 10.0 mi North 3.5 mph - N/A   Clear
8:15 AM 19.4 °F 12.8 °F 10.4 °F 68% 30.30 in 10.0 mi North 4.6 mph - N/A   Clear
8:35 AM 21.2 °F 14.9 °F 10.4 °F 63% 30.31 in 10.0 mi NNE 4.6 mph - N/A   Clear
8:55 AM 21.2 °F 11.7 °F 10.4 °F 63% 30.31 in 10.0 mi NNE 8.1 mph - N/A   Clear
9:15 AM 21.2 °F 12.6 °F 10.4 °F 63% 30.32 in 10.0 mi NNE 6.9 mph - N/A   Clear
9:35 AM 21.2 °F 13.6 °F 10.4 °F 63% 30.33 in 10.0 mi NNE 5.8 mph - N/A   Clear
9:55 AM 23.0 °F 17.0 °F 12.2 °F 63% 30.33 in 10.0 mi NNE 4.6 mph - N/A   Clear
10:15 AM 23.0 °F - 12.2 °F 63% 30.33 in 10.0 mi Calm Calm - N/A   Clear
10:35 AM 24.8 °F 17.9 °F 12.2 °F 59% 30.33 in 10.0 mi NNE 5.8 mph - N/A   Clear
10:55 AM 24.8 °F 16.9 °F 12.2 °F 59% 30.33 in 10.0 mi East 6.9 mph - N/A   Clear
11:15 AM 24.8 °F 19.1 °F 12.2 °F 59% 30.33 in 10.0 mi East 4.6 mph - N/A   Scattered Clouds
11:35 AM 24.8 °F 19.1 °F 12.2 °F 59% 30.33 in 10.0 mi ESE 4.6 mph - N/A   Clear
11:55 AM 26.6 °F 22.6 °F 12.2 °F 55% 30.32 in 10.0 mi ENE 3.5 mph - N/A   Clear
12:35 PM 26.6 °F 21.2 °F 12.2 °F 55% 30.32 in 10.0 mi ENE 4.6 mph - N/A   Clear
12:55 PM 26.6 °F 19.1 °F 12.2 °F 55% 30.32 in 10.0 mi ENE 6.9 mph - N/A   Clear
1:15 PM 28.4 °F 24.6 °F 14.0 °F 55% 30.32 in 10.0 mi East 3.5 mph - N/A   Clear
1:35 PM 28.4 °F 20.4 °F 14.0 °F 55% 30.32 in 10.0 mi East 8.1 mph - N/A   Clear
1:55 PM 30.2 °F 24.3 °F 14.0 °F 51% 30.31 in 10.0 mi NE 5.8 mph - N/A   Clear
2:15 PM 30.2 °F 21.9 °F 14.0 °F 51% 30.30 in 10.0 mi NE 9.2 mph - N/A   Clear
2:35 PM 28.4 °F 20.4 °F 14.0 °F 55% 30.30 in 10.0 mi ENE 8.1 mph - N/A   Clear
2:55 PM 30.2 °F 21.9 °F 14.0 °F 51% 30.30 in 10.0 mi ENE 9.2 mph - N/A   Clear
3:15 PM 28.4 °F 20.4 °F 14.0 °F 55% 30.30 in 10.0 mi NE 8.1 mph - N/A   Clear
3:35 PM 28.4 °F 20.4 °F 14.0 °F 55% 30.31 in 10.0 mi ENE 8.1 mph - N/A   Clear
3:55 PM 28.4 °F 19.7 °F 14.0 °F 55% 30.31 in 10.0 mi East 9.2 mph - N/A   Clear
4:15 PM 26.6 °F 16.8 °F 15.8 °F 64% 30.30 in 10.0 mi ENE 10.4 mph - N/A   Clear
4:35 PM 26.6 °F 18.2 °F 15.8 °F 64% 30.29 in 10.0 mi ENE 8.1 mph - N/A   Clear
4:55 PM 26.6 °F 20.0 °F 15.8 °F 64% 30.29 in 10.0 mi ENE 5.8 mph - N/A   Clear
5:15 PM 26.6 °F 21.2 °F 15.8 °F 64% 30.30 in 10.0 mi ENE 4.6 mph - N/A   Clear
5:35 PM 26.6 °F 21.2 °F 15.8 °F 64% 30.30 in 10.0 mi ENE 4.6 mph - N/A   Clear
5:55 PM 26.6 °F 20.0 °F 15.8 °F 64% 30.30 in 10.0 mi ENE 5.8 mph - N/A   Clear
6:15 PM 26.6 °F 19.1 °F 17.6 °F 69% 30.29 in 10.0 mi ENE 6.9 mph - N/A   Clear
6:55 PM 26.6 °F 20.0 °F 17.6 °F 69% 30.28 in 10.0 mi East 5.8 mph - N/A   Scattered Clouds
7:15 PM 26.6 °F 16.2 °F 17.6 °F 69% 30.27 in 10.0 mi East 11.5 mph - N/A   Clear
7:35 PM 26.6 °F 19.1 °F 17.6 °F 69% 30.28 in 10.0 mi East 6.9 mph - N/A   Scattered Clouds
7:55 PM 28.4 °F 19.1 °F 17.6 °F 64% 30.27 in 10.0 mi East 10.4 mph - N/A   Overcast
8:15 PM 26.6 °F 15.7 °F 17.6 °F 69% 30.26 in 10.0 mi East 12.7 mph 16.1 mph N/A   Overcast
8:35 PM 26.6 °F 16.2 °F 17.6 °F 69% 30.26 in 10.0 mi East 11.5 mph - N/A   Overcast
8:55 PM 26.6 °F 16.2 °F 17.6 °F 69% 30.24 in 10.0 mi East 11.5 mph 17.3 mph N/A   Overcast
9:15 PM 26.6 °F 15.7 °F 17.6 °F 69% 30.23 in 10.0 mi ENE 12.7 mph 18.4 mph N/A   Overcast
9:35 PM 28.4 °F 19.7 °F 19.4 °F 69% 30.23 in 10.0 mi ENE 9.2 mph - N/A   Overcast
9:55 PM 28.4 °F 19.7 °F 19.4 °F 69% 30.24 in 10.0 mi East 9.2 mph - N/A   Overcast
10:15 PM 28.4 °F 19.7 °F 19.4 °F 69% 30.24 in 10.0 mi East 9.2 mph - N/A   Overcast
10:35 PM 28.4 °F 19.1 °F 19.4 °F 69% 30.23 in 10.0 mi East 10.4 mph - N/A   Overcast
10:55 PM 28.4 °F 19.7 °F 19.4 °F 69% 30.23 in 10.0 mi East 9.2 mph - N/A   Overcast
11:15 PM 28.4 °F 18.0 °F 21.2 °F 74% 30.21 in 10.0 mi East 12.7 mph - N/A   Overcast
11:35 PM 28.4 °F 18.0 °F 21.2 °F 74% 30.19 in 10.0 mi East 12.7 mph - N/A   Overcast
11:55 PM 28.4 °F 19.7 °F 21.2 °F 74% 30.19 in 10.0 mi ENE 9.2 mph 18.4 mph N/A   Overcast